CZ-2F R/B (46390 NORAD) Tracking and Keplerian Element Data

This shows tracking and keplerian element data for the satellite.

Feedback or suggestion? Click here.




ElementValue
Catalog46390
NameCZ-2F R/B
Epoch Orbit300
Epoch Day267.29618063
Epoch Year2020
RAAN325.1985
Inclination50.2048
Eccentricity0.0015822
Argument of Perigee17.1185
Mean Anonmoly343.0326
Mean Motion15.77834693
Decay Rate0.0001232
L11 46390U 20063B 20267.29618063 .00012320 00000-0 74683-4 0 9995
L22 46390 50.2048 325.1985 0015822 17.1185 343.0326 15.77834693 3004

Live tracking and technical data element details for CZ-2F R/B (NORAD 46390). CZ-2F R/B can be tracked NOW for your location showing map with azimuth and elevation plus other details from your city location.

Track the satellite on the map from your city or location and see movement details for azimuth, elevation, latitude, longitude, range, height, and movement on the map or in text.







IsCatalogInMostPopularTable: catalog: 46390, numindb: 1
Update: records affected: 1



GetName: 46390 CZ-2F R/B

Hit Count: updated at: Thu, 24 Sep 2020 18:13:00 GMT